Wetbulb
45.74 46.09 46.04 47.07 47.69 49.50 49.91 49.61 49.74 50.57 50.21 50.69 50.96 50.95 51.78 50.19 49.50 50.12 50.80 50.93 49.59 48.84 49.11 49.30 49.62 50.93 51.83 52.31 52.89 53.25 52.92 52.46 49.25 50.53 52.44 52.84 51.56 51.38 52.21 53.06 53.68 53.58 53.62
46.50 46.41 46.38 47.40 49.13 48.18 47.97 48.39 49.13 48.52 49.14 49.60 49.83 49.83 50.07 49.72 48.70 49.01 48.97 49.69 49.74 48.67 51.08 51.91 51.96 53.28 52.89 52.81 52.58 52.06 52.08 50.46 49.45 47.62 49.42 49.62 49.38 49.98 50.89 51.44 53.28 54.22 53.13
45.76 45.77 46.16 47.13 47.67 47.11 47.37 47.77 48.26 47.97 48.07 48.31 48.61 48.35 48.18 48.60 48.53 48.46 48.20 47.63 48.04 48.59 48.73 48.36 48.79 49.56 49.32 49.29 49.63 49.44 49.91 51.08 49.58 48.11 47.56 49.54 49.95 49.82 49.31 50.16 50.57 50.33 53.43
45.06 45.15 45.26 45.90 45.88 45.70 47.87 47.83 47.65 47.48 47.07 47.15 47.10 47.33 47.80 47.83 47.43 46.57 46.57 47.00 48.09 48.59 49.07 48.93 48.80 48.60 47.56 46.99 47.55 47.68 48.54 48.09 48.36 47.78 47.53 48.49 49.61 50.62 50.85 46.76 45.65 47.24 47.01
42.84 43.81 44.41 45.74 45.44 45.74 46.87 47.79 47.57 47.00 46.52 46.82 46.47 46.59 46.85 47.08 46.17 45.96 46.64 46.85 47.54 47.77 48.46 48.77 48.99 47.82 46.99 48.60 48.79 48.53 48.68 48.16 48.15 47.78 47.51 47.56 47.47 46.13 44.09 44.00 44.41 43.59 43.18
40.23 41.55 44.05 44.54 44.13 44.20 45.04 44.95 44.44 44.16 45.57 44.40 44.49 45.03 44.29 45.94 45.35 46.19 46.14 46.24 47.75 47.18 46.78 47.40 47.79 46.84 47.29 48.21 46.98 45.43 44.69 43.46 44.47 45.66 46.18 43.56 42.77 40.92 41.33 41.12 42.11 41.48 40.19
38.68 39.48 41.22 42.73 42.51 42.34 43.56 43.74 43.12 42.95 43.22 43.11 43.49 44.27 44.12 44.71 44.75 44.96 45.48 45.96 45.40 44.07 44.11 44.67 45.08 44.99 44.38 45.36 45.08 43.96 43.17 43.17 42.87 41.99 41.33 39.05 38.93 37.74 38.18 38.36 39.62 38.93 39.53
38.20 38.37 39.25 39.98 40.49 41.14 40.98 41.22 41.56 42.21 41.72 41.70 41.74 41.92 41.43 42.51 43.38 43.23 43.97 43.43 43.87 43.30 41.76 41.91 42.38 42.07 42.35 43.57 43.15 41.18 39.97 39.52 39.54 39.45 38.51 37.56 37.59 37.28 36.50 36.06 35.88 35.42 34.92
37.85 37.76 38.35 38.77 38.57 39.01 38.63 38.70 39.55 40.21 40.30 40.38 41.28 40.28 39.48 39.63 42.59 41.65 41.78 41.05 42.54 42.36 42.00 40.61 39.35 39.77 40.88 41.98 42.04 39.93 39.02 38.45 39.41 38.71 37.94 37.39 37.33 36.71 35.19 31.52 28.04 29.53 28.33
38.13 38.29 38.35 38.18 37.55 37.25 37.34 37.49 38.27 38.84 39.83 40.17 39.67 39.09 40.29 38.10 40.83 41.31 39.90 40.06 40.52 41.43 41.81 38.60 38.74 36.57 38.05 39.01 38.18 38.77 38.01 37.35 37.10 34.75 32.91 33.74 33.67 33.32 34.58 30.27 30.63 27.95 28.75
39.61 39.57 38.96 38.29 37.03 36.64 36.42 36.71 36.93 36.95 38.00 37.57 37.96 37.67 37.55 37.65 36.69 41.93 40.46 38.05 38.63 38.72 38.45 36.42 35.32 36.64 36.56 37.16 37.90 34.22 34.09 36.17 35.14 32.14 30.09 29.48 29.38 28.92 28.53 28.27 28.47 30.12 27.68
40.21 39.73 38.93 38.18 37.88 37.42 35.60 35.17 35.40 35.07 34.40 34.10 34.59 35.01 36.13 36.14 40.38 40.00 41.26 40.00 38.80 36.13 36.04 34.97 34.50 35.94 35.09 35.28 33.46 34.02 33.85 33.96 30.17 28.75 27.88 26.62 25.84 25.13 24.98 25.76 27.60 29.49 31.30
39.72 38.96 38.55 38.43 37.66 36.94 34.26 33.31 33.21 33.82 32.98 32.63 32.83 32.48 33.36 35.47 33.73 41.05 40.62 40.97 39.68 36.11 35.05 36.07 37.15 35.89 34.42 33.19 32.84 32.66 33.43 28.47 27.34 26.59 25.39 24.47 24.67 23.91 24.92 24.57 26.50 27.92 28.16
38.49 38.37 38.10 37.29 37.02 36.43 36.70 35.58 33.42 33.11 33.01 33.54 32.60 32.31 32.57 33.04 32.94 32.70 36.28 36.88 39.34 36.94 35.79 33.83 34.21 33.64 34.33 32.12 30.65 30.12 28.63 27.18 26.22 25.47 25.27 24.96 24.49 22.01 22.26 22.12 17.13 17.43 15.25
36.67 36.93 37.41 37.81 37.38 36.58 36.42 35.46 34.72 35.73 36.21 34.92 34.62 33.83 32.35 32.08 34.22 36.21 35.22 34.93 34.15 35.22 33.28 30.78 29.63 28.76 27.72 27.73 27.68 27.58 27.99 27.33 26.37 25.80 24.47 24.15 25.80 25.49 23.65 20.35 17.45 13.69 12.85
35.48 36.35 36.62 36.67 36.67 36.57 35.60 35.45 40.20 40.26 40.48 40.98 40.79 37.45 35.45 38.80 39.70 40.78 40.53 39.76 39.88 39.33 33.17 29.20 28.11 27.95 27.61 27.35 27.34 27.03 26.93 28.09 26.17 25.81 23.99 22.73 21.78 21.73 20.10 18.43 15.91 12.87 12.06
35.46 35.79 36.05 37.57 36.17 35.93 35.80 34.51 33.69 36.28 41.05 41.03 40.79 40.67 40.40 39.48 38.94 39.83 38.97 38.60 38.35 37.87 31.34 29.18 29.09 28.51 28.40 28.17 27.37 26.03 24.94 26.48 24.21 21.96 21.43 20.68 20.50 19.89 19.40 16.38 16.13 15.50 15.04
36.79 39.08 36.09 35.40 35.29 35.69 35.32 34.74 34.14 33.21 32.85 33.61 38.75 39.98 39.98 40.02 39.37 39.13 39.63 38.69 33.02 35.07 32.63 31.56 30.17 29.68 29.75 29.18 26.34 25.09 25.04 23.99 21.95 22.87 20.81 19.55 16.91 17.82 16.48 20.69 21.08 12.99 12.29
35.84 35.79 36.25 34.89 34.63 35.72 34.37 33.68 33.73 33.27 33.10 33.74 33.90 37.00 38.91 40.82 40.29 39.81 39.56 35.86 33.86 31.99 31.98 32.29 32.69 32.00 31.49 30.31 29.60 27.98 26.68 24.91 23.13 21.56 20.99 18.94 18.94 16.84 16.51 22.74 14.96 23.98 23.71
35.45 37.81 38.32 33.64 33.06 33.44 33.57 33.08 32.48 32.27 32.59 33.84 33.01 32.98 32.64 33.99 30.13 31.68 33.55 35.35 34.48 33.77 32.67 32.67 33.40 33.16 32.71 31.53 30.25 29.56 27.57 27.92 26.10 24.25 22.49 21.61 19.93 18.68 20.17 21.74 20.23 21.63 22.02
35.09 35.29 37.47 34.30 32.99 32.93 33.07 33.09 32.44 31.96 31.99 33.52 33.75 32.89 37.77 32.90 32.42 31.80 32.09 33.70 34.55 34.73 34.33 33.22 32.87 33.26 33.23 32.15 31.09 29.45 27.70 26.67 25.15 23.92 22.91 22.44 20.72 18.31 21.74 23.52 22.68 22.59 22.22
33.83 33.40 32.89 32.41 32.11 31.54 31.66 32.21 31.98 32.00 32.49 32.28 32.73 33.56 36.34 34.86 34.58 34.00 32.88 32.92 33.64 34.89 35.26 34.42 33.26 32.85 32.82 32.19 31.55 29.93 28.05 26.90 26.31 25.20 23.74 22.83 21.31 20.06 21.27 22.66 22.50 22.39 22.08
32.56 32.16 31.89 31.90 32.02 33.39 31.86 30.41 29.90 30.99 31.45 31.59 32.04 32.23 32.73 32.82 33.25 33.69 33.65 33.56 33.16 32.95 33.41 33.33 33.32 32.79 32.99 32.70 32.51 31.37 28.91 27.78 27.30 26.22 23.86 22.65 21.25 19.09 20.12 21.81 21.96 21.86 21.77
32.25 32.09 31.82 31.64 31.46 30.61 30.31 30.15 29.98 31.40 31.42 31.37 31.89 32.11 32.25 32.60 32.92 33.05 33.03 33.26 32.61 32.21 32.00 32.09 32.44 32.82 32.53 32.29 31.92 31.38 30.14 28.50 27.90 26.12 24.57 22.19 20.31 22.45 20.31 21.95 22.22 22.11 21.95
32.42 31.88 31.64 31.58 31.25 31.51 31.33 31.36 30.04 29.87 30.24 30.73 31.13 31.77 32.28 32.75 32.84 32.92 32.77 32.14 32.24 31.15 30.41 30.61 30.76 31.49 31.81 31.03 30.28 29.63 28.82 30.18 27.35 26.02 24.16 21.56 19.47 17.61 19.47 22.04 22.01 22.31 22.33
32.45 31.88 31.47 31.41 31.26 31.44 31.49 30.95 30.22 31.29 31.14 31.34 31.76 32.44 32.65 32.61 32.64 32.54 32.09 31.05 30.54 30.11 29.67 29.69 29.11 29.43 29.98 29.56 28.79 29.02 31.38 30.73 28.17 27.74 23.38 21.51 20.04 18.97 20.47 21.65 21.57 21.50 21.24
MSLP
1017.88 1017.73 1017.59 1017.56 1017.33 1017.11 1017.09 1017.07 1016.97 1016.70 1016.37 1016.00 1015.53 1015.16 1014.67 1014.27 1013.91 1013.47 1013.10 1012.79 1012.70 1012.39 1011.97 1011.75 1011.56 1011.32 1011.30 1011.06 1010.90 1010.80 1010.91 1011.04 1011.27 1011.05 1010.68 1010.27 1010.19 1009.99 1009.75 1009.60 1009.62 1009.69 1009.72
1017.41 1017.26 1017.31 1017.23 1017.02 1017.10 1017.12 1017.02 1016.93 1016.69 1016.32 1015.98 1015.59 1015.29 1014.96 1014.60 1014.33 1014.01 1013.69 1013.39 1013.00 1012.64 1012.03 1011.73 1011.52 1011.14 1011.14 1010.86 1010.77 1010.86 1010.88 1011.01 1011.18 1011.23 1010.73 1010.50 1010.29 1010.10 1010.24 1010.11 1009.95 1009.73 1009.82
1017.12 1017.06 1017.12 1017.04 1017.10 1017.17 1017.05 1016.86 1016.71 1016.50 1016.25 1015.90 1015.60 1015.35 1015.11 1014.85 1014.57 1014.34 1014.07 1013.69 1013.32 1013.00 1012.77 1012.63 1012.41 1012.14 1011.76 1011.61 1011.52 1011.34 1011.25 1011.20 1011.15 1011.16 1010.97 1010.72 1010.62 1010.49 1010.31 1010.16 1010.15 1010.17 1010.12
1016.74 1016.78 1016.90 1016.97 1016.89 1016.86 1016.67 1016.61 1016.47 1016.30 1016.08 1015.85 1015.63 1015.37 1015.10 1014.82 1014.64 1014.46 1014.20 1013.88 1013.55 1013.20 1012.95 1012.76 1012.56 1012.40 1012.33 1012.20 1012.01 1011.91 1011.82 1011.74 1011.66 1011.60 1011.41 1011.12 1011.00 1010.55 1010.63 1011.02 1010.83 1010.61 1010.37
1016.49 1016.54 1016.63 1016.59 1016.60 1016.56 1016.43 1016.41 1016.28 1016.15 1015.95 1015.70 1015.56 1015.32 1015.05 1014.74 1014.68 1014.48 1014.21 1013.84 1013.51 1013.15 1012.92 1012.69 1012.60 1012.61 1012.61 1012.50 1012.37 1012.17 1012.10 1012.01 1011.85 1011.71 1011.61 1011.45 1011.40 1011.48 1011.75 1012.01 1011.72 1011.40 1011.27
1016.12 1016.24 1016.22 1016.19 1016.23 1016.25 1016.17 1016.08 1015.99 1015.85 1015.56 1015.47 1015.33 1015.11 1014.96 1014.81 1014.75 1014.46 1014.19 1013.81 1013.42 1013.20 1013.04 1012.88 1012.77 1012.68 1012.66 1012.57 1012.61 1012.68 1012.64 1012.49 1012.30 1012.12 1012.07 1012.16 1012.32 1012.58 1012.62 1012.52 1012.24 1012.03 1011.82
1015.78 1015.76 1015.75 1015.74 1015.84 1015.85 1015.72 1015.64 1015.71 1015.61 1015.41 1015.31 1015.09 1014.96 1014.84 1014.69 1014.61 1014.46 1014.15 1013.85 1013.66 1013.55 1013.34 1013.15 1012.94 1013.07 1013.13 1012.98 1012.83 1012.84 1012.91 1012.85 1012.71 1012.64 1012.60 1012.98 1013.11 1013.41 1013.34 1013.02 1012.84 1012.83 1012.56
1015.20 1015.22 1015.30 1015.33 1015.36 1015.38 1015.35 1015.32 1015.24 1015.08 1015.04 1014.99 1014.84 1014.64 1014.53 1014.37 1014.31 1014.28 1014.06 1013.75 1013.61 1013.56 1013.62 1013.58 1013.34 1013.21 1013.17 1013.09 1013.06 1013.24 1013.39 1013.45 1013.36 1013.35 1013.51 1013.75 1013.81 1013.88 1013.88 1013.66 1013.40 1013.15 1012.71
1014.60 1014.58 1014.66 1014.75 1014.79 1014.95 1014.98 1014.96 1014.88 1014.89 1014.89 1014.82 1014.63 1014.55 1014.55 1014.39 1014.27 1014.21 1014.14 1013.90 1013.68 1013.56 1013.53 1013.62 1013.65 1013.57 1013.48 1013.34 1013.18 1013.36 1013.59 1013.84 1014.02 1014.00 1013.93 1013.98 1013.94 1013.97 1013.98 1013.94 1013.85 1013.59 1013.12
1013.78 1013.78 1013.85 1013.90 1014.13 1014.30 1014.33 1014.34 1014.30 1014.34 1014.44 1014.46 1014.38 1014.24 1014.10 1014.01 1013.91 1013.90 1013.88 1013.88 1013.71 1013.50 1013.52 1013.68 1013.82 1013.87 1013.80 1013.58 1013.34 1013.36 1013.45 1013.63 1013.91 1014.09 1014.26 1014.22 1014.24 1014.19 1014.14 1014.39 1014.33 1014.18 1013.81
1013.16 1013.11 1013.20 1013.28 1013.54 1013.65 1013.86 1013.90 1013.94 1014.12 1014.17 1014.17 1014.15 1013.93 1013.77 1013.59 1013.49 1013.57 1013.70 1013.79 1013.71 1013.53 1013.49 1013.63 1013.86 1013.92 1013.92 1013.75 1013.65 1013.69 1013.87 1013.93 1013.90 1014.03 1014.37 1014.68 1014.84 1014.80 1014.73 1014.66 1014.63 1014.44 1014.26
1012.62 1012.67 1012.75 1012.81 1012.95 1013.02 1013.31 1013.34 1013.42 1013.57 1013.67 1013.65 1013.57 1013.29 1013.04 1012.86 1012.86 1013.01 1013.20 1013.35 1013.42 1013.46 1013.31 1013.21 1013.48 1013.70 1013.91 1013.90 1013.97 1014.00 1013.96 1014.07 1014.17 1014.24 1014.47 1014.85 1015.13 1015.13 1014.88 1014.76 1014.49 1014.45 1014.40
1011.95 1011.98 1012.03 1012.14 1012.20 1012.32 1012.62 1012.70 1012.89 1012.92 1012.94 1012.85 1012.85 1012.69 1012.36 1012.17 1012.08 1012.18 1012.44 1012.70 1012.93 1013.16 1013.20 1013.07 1013.23 1013.53 1013.77 1013.91 1013.99 1014.06 1014.06 1014.18 1014.47 1014.56 1014.59 1014.74 1014.96 1014.92 1014.91 1014.72 1014.38 1014.21 1014.21
1011.29 1011.33 1011.34 1011.48 1011.58 1011.72 1011.72 1011.89 1012.02 1012.10 1012.11 1012.03 1012.07 1011.94 1011.64 1011.59 1011.65 1011.64 1011.81 1012.10 1012.33 1012.58 1012.85 1013.01 1013.18 1013.39 1013.59 1013.75 1013.82 1013.85 1013.96 1014.11 1014.37 1014.62 1014.74 1014.72 1014.63 1014.81 1014.99 1014.83 1014.99 1014.61 1014.87
1010.82 1010.87 1010.91 1010.89 1010.92 1010.92 1010.88 1010.91 1011.01 1010.90 1010.96 1010.98 1010.96 1011.00 1011.14 1011.07 1010.73 1010.81 1011.08 1011.41 1011.68 1011.93 1012.35 1012.73 1013.05 1013.18 1013.26 1013.30 1013.46 1013.53 1013.71 1013.91 1014.18 1014.29 1014.64 1014.77 1014.87 1014.87 1014.91 1014.73 1014.87 1015.15 1015.22
1010.66 1010.56 1010.54 1010.53 1010.56 1010.54 1010.48 1010.34 1010.09 1010.01 1010.01 1010.01 1010.00 1010.07 1010.16 1010.10 1010.05 1010.12 1010.31 1010.50 1010.81 1011.20 1011.57 1011.99 1012.23 1012.50 1012.59 1012.61 1012.79 1013.00 1013.27 1013.61 1013.80 1014.06 1014.44 1014.68 1014.84 1014.77 1014.81 1014.86 1014.87 1015.17 1015.37
1010.45 1010.49 1010.48 1010.39 1010.28 1010.20 1010.13 1010.21 1010.01 1009.54 1009.25 1009.22 1009.26 1009.24 1009.35 1009.29 1009.52 1009.66 1009.77 1009.95 1010.22 1010.58 1010.92 1011.20 1011.40 1011.54 1011.61 1011.78 1012.01 1012.30 1012.67 1012.95 1013.30 1013.77 1014.18 1014.29 1014.60 1014.74 1014.79 1014.89 1014.85 1015.01 1015.04
1010.09 1010.05 1010.11 1010.14 1010.17 1010.10 1009.99 1009.83 1009.70 1009.61 1009.30 1009.04 1008.64 1008.61 1008.52 1008.51 1008.64 1008.94 1009.17 1009.49 1009.81 1009.80 1010.10 1010.44 1010.60 1010.66 1010.78 1010.99 1011.20 1011.51 1011.97 1012.54 1013.08 1013.37 1013.95 1014.10 1014.21 1014.38 1014.44 1014.43 1014.51 1014.81 1014.86
1010.08 1009.97 1009.87 1009.74 1009.71 1009.73 1009.62 1009.55 1009.44 1009.32 1009.16 1008.80 1008.50 1008.17 1007.98 1007.96 1008.00 1008.20 1008.51 1008.68 1008.80 1009.00 1009.14 1009.31 1009.47 1009.70 1009.89 1010.12 1010.40 1010.80 1011.27 1011.68 1012.26 1012.81 1013.18 1013.52 1013.88 1014.07 1014.11 1014.07 1014.21 1014.07 1013.98
1009.85 1009.76 1009.77 1009.74 1009.68 1009.68 1009.54 1009.43 1009.29 1009.10 1008.87 1008.57 1008.30 1008.00 1007.82 1007.73 1007.77 1007.74 1007.75 1007.86 1008.07 1008.14 1008.32 1008.44 1008.44 1008.64 1008.94 1009.22 1009.68 1010.10 1010.64 1011.13 1011.51 1012.05 1012.57 1012.85 1013.32 1013.65 1013.84 1013.83 1013.84 1013.89 1013.86
1009.63 1009.54 1009.60 1009.56 1009.53 1009.42 1009.32 1009.22 1009.02 1008.89 1008.75 1008.39 1007.98 1007.72 1007.45 1007.35 1007.14 1007.12 1007.11 1007.01 1007.06 1007.28 1007.42 1007.48 1007.58 1007.71 1007.97 1008.43 1008.86 1009.40 1010.00 1010.42 1010.90 1011.49 1011.98 1012.23 1012.66 1013.17 1013.40 1013.42 1013.48 1013.57 1013.60
1009.35 1009.34 1009.31 1009.33 1009.20 1009.13 1008.92 1008.79 1008.70 1008.52 1008.25 1007.99 1007.61 1007.29 1007.12 1006.98 1006.66 1006.48 1006.35 1006.18 1006.11 1006.07 1006.12 1006.39 1006.60 1006.81 1006.98 1007.41 1007.89 1008.43 1009.04 1009.60 1010.14 1010.76 1011.23 1011.69 1012.07 1012.53 1012.78 1013.05 1013.11 1013.23 1013.27
1008.91 1008.83 1008.80 1008.77 1008.66 1008.58 1008.54 1008.43 1008.28 1008.06 1007.81 1007.55 1007.11 1006.68 1006.42 1006.18 1006.11 1005.93 1005.69 1005.50 1005.38 1005.37 1005.43 1005.50 1005.63 1005.92 1006.14 1006.53 1007.01 1007.52 1008.14 1008.56 1009.19 1009.82 1010.49 1011.08 1011.70 1012.10 1012.32 1012.59 1012.75 1012.85 1012.89
1008.17 1008.22 1008.15 1008.02 1008.02 1008.03 1007.93 1007.76 1007.59 1007.43 1007.23 1006.94 1006.60 1006.16 1005.81 1005.52 1005.26 1005.06 1004.88 1004.80 1004.83 1004.86 1004.80 1004.96 1005.02 1005.26 1005.53 1005.81 1006.20 1006.75 1007.34 1008.03 1008.56 1009.17 1009.77 1010.52 1011.19 1011.49 1011.89 1012.23 1012.44 1012.56 1012.73
1007.44 1007.45 1007.41 1007.31 1007.30 1007.22 1007.10 1006.98 1006.86 1006.71 1006.54 1006.29 1005.94 1005.55 1005.26 1004.96 1004.72 1004.48 1004.22 1004.14 1004.24 1004.38 1004.36 1004.42 1004.58 1004.87 1005.18 1005.40 1005.79 1006.18 1006.88 1007.46 1008.10 1008.67 1009.41 1010.04 1010.61 1011.10 1011.48 1011.90 1012.17 1012.30 1012.49
1006.81 1006.79 1006.68 1006.62 1006.63 1006.45 1006.28 1006.11 1006.03 1005.92 1005.70 1005.48 1005.23 1004.90 1004.66 1004.39 1004.16 1003.87 1003.74 1003.72 1003.72 1003.94 1004.01 1004.19 1004.24 1004.27 1004.77 1005.26 1005.64 1006.04 1006.64 1007.10 1007.84 1008.47 1009.14 1009.78 1010.33 1010.84 1011.26 1011.60 1011.88 1012.13 1012.31
Wind_Speed
5 4 4 5 5 5 4 4 7 7 8 8 8 9 10 9 8 6 5 5 6 6 6 6 7 6 5 4 3 2 2 2 3 3 2 3 3 4 5 4 4 4 4
5 3 4 6 4 5 5 5 6 7 7 6 7 7 8 8 8 8 9 10 10 8 9 7 4 3 5 4 2 3 2 3 1 3 2 2 3 3 3 5 4 4 4
4 2 4 5 3 5 7 5 4 5 5 5 6 6 6 6 7 8 8 8 8 7 6 7 8 9 8 7 6 5 4 3 3 2 3 2 2 2 4 3 3 4 5
5 4 4 5 4 5 4 5 4 6 5 4 5 5 4 5 4 7 8 8 7 6 6 6 6 5 5 6 5 6 5 5 5 4 3 4 3 4 3 3 4 3 6
5 4 5 5 4 5 4 6 6 5 4 4 4 4 4 4 4 6 6 6 6 5 4 4 4 4 7 6 4 4 4 3 3 3 3 2 2 3 4 5 4 6 1
5 6 6 5 5 5 5 4 4 4 4 3 4 4 5 3 8 9 6 5 4 4 4 4 4 5 6 4 8 11 8 4 4 2 2 2 3 4 4 4 4 4 4
7 6 6 6 6 6 5 4 5 5 4 5 5 4 4 4 6 9 8 3 2 3 3 4 4 5 6 4 5 7 9 9 7 2 3 3 3 5 4 4 3 2 3
7 7 7 6 6 6 6 6 5 4 4 5 5 5 4 4 2 4 8 4 1 1 4 4 4 4 6 6 3 4 5 5 5 4 5 4 3 3 3 4 4 6 5
8 8 7 7 7 7 7 7 5 4 4 5 5 5 5 5 3 4 6 5 3 2 2 2 3 4 6 9 2 2 2 2 3 4 4 4 4 6 7 3 3 3 2
10 9 8 7 7 8 7 7 5 4 5 4 6 6 8 6 8 6 3 3 4 3 5 3 4 3 4 5 4 3 3 2 1 3 0 1 5 5 7 5 3 2 3
7 7 7 7 7 7 6 4 5 5 5 6 6 6 7 7 7 8 6 3 4 3 3 2 3 4 3 3 3 3 3 3 3 1 2 2 3 4 3 3 3 2 2
7 7 7 7 6 5 7 6 6 6 6 6 6 6 5 6 10 9 10 9 8 3 4 3 4 4 2 3 3 2 2 3 1 2 2 1 1 1 2 3 2 1 2
7 8 8 7 7 7 7 7 5 6 5 6 5 5 5 5 5 13 12 12 10 5 4 3 9 7 4 2 1 2 3 2 1 0 1 2 2 3 2 2 3 3 3
7 7 7 7 7 7 6 6 5 5 6 7 6 6 5 5 5 5 5 5 11 6 5 4 5 6 7 4 3 3 1 2 2 1 1 1 0 1 1 1 1 2 2
6 6 6 5 6 6 6 7 8 8 9 7 8 6 5 5 6 10 9 6 6 8 6 3 3 3 4 4 4 4 3 3 2 2 1 1 1 0 1 0 0 2 1
6 4 4 4 5 5 5 5 8 12 13 15 11 7 4 7 7 10 13 13 13 15 5 4 4 5 6 5 5 4 4 5 3 2 2 2 1 1 0 2 1 1 0
5 5 4 5 4 5 4 5 6 5 12 14 15 16 15 16 12 12 13 11 13 12 5 5 6 6 6 6 5 4 4 4 4 3 3 3 3 2 1 1 0 1 2
5 8 4 4 4 4 4 4 4 4 4 4 8 13 14 18 16 15 13 11 5 10 7 8 8 7 7 6 5 5 4 4 3 3 3 3 3 3 1 2 1 1 0
5 4 4 4 4 5 4 4 4 5 5 6 4 5 7 16 14 16 16 9 9 8 8 8 8 7 7 6 6 5 6 6 5 4 4 4 3 3 3 2 1 3 2
5 8 7 3 4 4 4 4 4 4 5 6 6 6 3 4 2 4 6 7 8 8 8 9 8 7 7 7 6 6 6 7 6 6 5 5 4 3 3 3 3 2 1
4 4 7 4 4 4 4 4 4 4 5 8 8 5 11 6 5 6 6 7 8 9 8 8 7 7 7 7 7 7 7 6 6 6 5 5 5 3 3 3 3 3 2
4 4 3 4 4 4 4 4 4 4 6 8 8 7 15 10 8 6 6 7 7 8 7 7 7 7 7 8 8 8 8 8 7 7 6 6 5 5 4 4 3 3 2
4 5 4 4 4 7 5 4 4 5 6 7 8 7 7 6 7 7 8 7 6 6 6 6 7 6 6 7 7 8 8 8 8 8 8 7 6 5 4 4 4 3 2
5 6 6 5 4 5 5 6 5 9 8 8 8 7 7 7 7 8 7 6 5 6 5 5 6 7 7 7 7 6 6 5 7 8 10 8 7 9 4 4 3 3 2
6 6 6 7 6 7 7 7 6 5 6 7 8 7 7 7 7 7 6 6 6 5 5 4 4 6 8 10 8 9 10 16 9 10 6 7 8 7 5 5 4 3 3
6 6 6 6 6 7 7 6 6 6 7 9 9 7 7 7 7 6 5 5 4 4 4 4 5 7 8 8 9 12 16 17 13 15 8 7 7 5 5 6 6 3 4
Wind_Direction
252 260 283 277 289 306 318 326 310 311 320 315 335 331 338 347 338 323 300 270 263 275 275 259 262 267 270 265 277 272 265 242 237 284 252 291 328 332 326 337 332 329 313
247 277 300 305 321 341 307 305 311 313 322 324 333 336 344 350 344 352 350 350 347 335 338 354 323 305 327 300 299 313 345 344 51 281 274 297 280 334 6 1 348 344 325
248 270 290 294 337 295 306 296 292 302 305 325 333 333 340 341 342 357 348 337 337 340 359 359 352 358 359 5 3 4 350 349 339 301 294 353 349 341 329 331 328 351 8
232 235 257 278 275 274 306 304 306 312 315 324 325 326 333 330 13 356 343 331 327 329 327 327 326 334 357 348 337 335 335 332 329 333 314 319 309 323 8 10 335 352 343
228 237 247 256 274 280 291 299 306 319 316 312 312 315 316 323 13 340 326 312 309 303 312 324 322 8 2 326 314 324 332 310 294 291 287 301 345 18 18 352 317 325 307
219 234 245 247 253 265 262 261 265 273 281 276 298 315 328 339 356 347 344 305 338 13 9 19 26 42 3 59 82 71 59 15 350 344 1 6 28 25 360 339 332 347 327
219 233 240 241 243 250 258 256 265 265 274 285 281 285 294 290 336 342 341 324 8 13 12 11 12 41 16 5 99 78 59 48 56 9 52 39 46 20 338 322 336 313 288
224 231 234 236 239 244 247 246 251 248 249 262 264 261 268 270 226 329 332 305 338 17 58 19 12 40 20 4 63 68 66 52 41 55 60 67 67 29 351 294 296 308 282
228 227 227 225 232 237 245 246 246 244 255 262 263 270 276 286 258 317 330 306 280 279 143 96 10 15 358 343 347 109 127 108 80 74 90 86 76 44 28 10 11 350 317
226 223 222 223 220 225 229 236 235 229 244 254 267 258 258 259 270 240 273 286 286 280 282 160 95 42 357 348 334 329 254 149 63 352 38 20 80 44 48 48 12 356 320
236 227 224 224 225 225 230 229 227 237 247 249 253 256 252 241 248 225 239 263 275 280 250 200 119 70 8 5 20 37 19 7 306 148 93 47 39 40 27 20 15 348 326
242 234 228 226 221 215 219 231 230 225 236 247 252 260 245 240 226 226 223 240 260 268 266 198 159 140 72 23 63 31 334 311 11 76 103 95 9 346 314 324 309 307 296
232 230 228 225 219 216 214 225 228 221 221 232 231 242 245 239 223 209 220 226 240 243 267 165 164 170 202 209 205 300 331 37 10 57 143 174 192 225 291 346 338 332 247
245 241 228 223 229 223 217 214 213 216 226 230 229 238 237 236 224 206 204 219 227 224 226 194 190 199 223 230 221 249 163 143 165 184 188 228 198 18 31 335 14 317 43
249 248 247 233 236 235 223 209 219 229 219 233 234 230 224 238 230 204 196 198 194 206 190 184 192 206 221 219 220 208 198 201 189 171 149 188 222 354 223 209 191 355 84
270 260 250 241 241 242 242 267 251 238 229 237 238 215 232 245 208 216 210 203 201 203 187 194 203 211 218 210 208 207 199 205 189 163 163 173 202 169 231 316 66 88 220
269 278 281 282 261 246 238 232 256 281 258 249 249 251 245 246 238 222 212 218 221 212 206 212 223 217 218 210 198 188 190 186 160 159 174 175 180 209 162 264 315 60 326
273 264 253 259 272 287 286 272 263 259 260 266 254 242 246 249 244 237 228 224 228 227 214 223 227 221 216 211 195 185 176 156 174 176 185 179 174 183 192 204 215 172 226
276 271 263 257 255 259 263 269 266 270 268 273 281 269 257 252 247 239 232 231 232 226 222 223 220 220 215 205 200 188 182 184 176 176 185 175 187 173 220 180 207 277 277
272 273 262 269 284 286 281 275 275 267 269 272 270 263 264 258 218 224 220 223 233 233 227 229 224 216 209 200 195 191 186 195 186 186 191 179 181 176 189 193 210 227 281
262 274 279 279 276 276 274 276 276 279 278 287 283 264 265 250 244 225 222 219 224 233 232 227 220 209 200 196 189 186 189 190 180 183 189 180 175 178 194 209 210 222 240
258 268 271 266 270 273 269 264 267 276 287 287 290 288 287 276 268 251 235 230 227 227 221 217 214 207 198 194 191 187 188 191 185 181 180 179 173 171 187 188 201 218 224
238 245 253 256 248 267 267 257 252 259 272 274 275 275 267 257 258 258 251 242 233 223 219 206 208 206 198 192 187 188 190 189 186 174 173 172 176 173 174 186 198 199 202
226 238 241 244 238 241 244 248 246 256 266 270 269 268 267 264 258 253 250 244 231 231 212 206 206 203 192 184 179 178 175 160 161 170 162 167 173 184 166 187 191 186 187
225 234 236 243 242 247 253 253 247 247 259 267 269 269 267 264 261 255 250 241 239 222 211 197 193 198 192 175 167 160 164 165 158 153 156 158 166 168 164 186 187 179 187
234 235 238 239 240 241 242 245 243 259 273 280 276 267 267 266 262 255 247 232 220 216 206 205 196 185 178 172 162 162 175 168 164 162 149 155 160 161 171 182 185 186 207